Flag for Germany Weather past 2 weeks in Bretten, Baden-Württemberg, Germany

Now
82 °F

Passing clouds.


Feels Like: 82 °F
Forecast: 57 / 79 °F
Wind: 12 mph from Northeast

Location: Baden Wurttemberg - Neuostheim

Current Time: Jul 23, 2014 at 2:01:55 PM

Latest Report: Jul 23, 2014 at 12:50 PM


Visibility: N/A

Pressure: 29.98 "Hg

Humidity: 40%

Dew point: 55 °F

Location of BrettenLocation

Historic Weather in Bretten — Graph

°F

Bretten temperature yesterday

Maximum temperature yesterday: 82 °F (at 3:50 PM)
Minimum temperature yesterday: 68 °F (at 5:20 AM)
Average temperature yesterday: 75 °F

Past Weeks' High & Low Weather Summary

 TemperatureHumidityPressure
High93 °F (Jul 18, 4:50 PM)100% (Jul 11, 5:20 AM)30.18 "Hg (Jul 11, 5:20 AM)
Low55 °F (Jul 9, 6:50 AM)20% (Jul 18, 5:50 PM)29.74 "Hg (Jul 9, 6:50 PM)
Average72 °F66%29.95 "Hg
* Reported Jul 8 11:20 AM — Jul 23 11:50 AM, Bretten, Weather by CustomWeather, © 2014

Note: Actual official high and low records may vary slightly from our data, if they occured in-between our weather recording intervals... More about our weather records

Advertising

Bretten weather history for previous 24 hours

 ConditionsComfort  
Time TempWeatherWind HumidityBarometerVisibility
11:50 AM
Jul 23
81 °FPassing clouds.8 mph51%30.01 "HgN/A
11:20 AM79 °FPassing clouds.7 mph51%30.01 "HgN/A
10:50 AM77 °FSunny.6 mph54%30.01 "Hg10 mi
10:20 AM77 °FPassing clouds.7 mph54%30.01 "HgN/A
9:50 AM75 °FSunny.8 mph57%30.01 "Hg10 mi
7:50 AM72 °FSunny.7 mph65%30.01 "Hg10 mi
7:20 AM70 °FSunny.5 mph73%30.01 "Hg10 mi
6:50 AM68 °FSunny.6 mph78%30.01 "Hg10 mi
6:20 AM66 °FClear.6 mph83%30.01 "Hg10 mi
5:50 AM66 °FClear.6 mph83%30.01 "Hg10 mi
6:50 PM
Jul 22
82 °FPassing clouds.12 mph45%29.95 "HgN/A
6:20 PM82 °FPassing clouds.9 mph42%29.95 "HgN/A
5:50 PM82 °FPassing clouds.9 mph45%29.95 "HgN/A
5:20 PM82 °FSunny.9 mph45%29.95 "Hg10 mi
4:50 PM82 °FPassing clouds.9 mph48%29.95 "HgN/A
4:20 PM82 °FPassing clouds.10 mph45%29.95 "HgN/A
3:50 PM82 °FPassing clouds.10 mph51%29.95 "HgN/A
3:20 PM81 °FScattered clouds.14 mph54%29.95 "HgN/A
2:50 PM81 °FScattered clouds.10 mph58%29.95 "HgN/A
2:20 PM81 °FPassing clouds.14 mph62%29.95 "HgN/A
Weather by CustomWeather, © 2014

See weather overviewHow to use our weather pages